Starlink 11653

operational
NORAD ID: 63267 Int'l Des: 2025-053 Owner: SPXS Country: US Constellation: starlink
LEOCIRCULAR

关于 Starlink 11653

正在加载描述...

实时位置

正在加载3D地球...

即将过境

高度历史

Altitude vs Time

uPlot chart will show altitude changes over time

两行轨道根数

1 63267U 25053C 25353.04335865 .00204796 00000-0 15536-2 0 9991
2 63267 42.9996 238.5401 0003936 251.7727 108.2712 15.70941161 44981
Epoch: Dec 19, 2025 • Age: 32 hours

当前状态

高度 365.4 km
速度 7.69 km/s
星下点 -43.16°S, 79.71°W
发射日期 Mar 15, 2025
运行时间 0.7 years
类型 internet

技术详情

分类 Payload
质量 960.00 kg
干质量 910.00 kg
总质量 960.00 kg
长度 0.30 m
直径 4.10 m
跨度 29.00 m
形状 Box + pan
制造商 SPXS
平台类型 Starlink V2MD
阶段状态 In Orbit
所有者/国家 SPXS/US

大型星座

Loading constellations...